Location: Pine Mountain Observatory
(43.7910°N, 120.9377°W)
Time: 12:59:33
(UTC-07:00)

OTV 5 (USA 277) - Visible Passes

Search period start: 22 April 2019 00:00
Search period end: 02 May 2019 00:00
Orbit: 309 x 326 km, 54.5° (Epoch: 21 April)

Date Brightness Start Highest point End Pass type
(mag) Time Alt. Az. Time Alt. Az. Time Alt. Az.
22 Apr ? 03:22:36 10° ENE 03:22:36 10° ENE 03:22:39 10° ENE visible
22 Apr ? 04:53:36 20° WNW 04:55:06 46° SW 04:57:38 10° SSE visible
22 Apr ? 21:13:31 10° SSW 21:14:38 19° S 21:14:38 19° S visible
23 Apr ? 05:10:00 16° SW 05:10:00 16° SW 05:11:29 10° S visible
23 Apr ? 21:27:48 10° SW 21:30:31 79° SE 21:31:37 32° ENE visible
24 Apr ? 21:42:42 10° WSW 21:45:17 38° NNW 21:47:40 11° NE visible
25 Apr ? 21:58:03 10° WNW 22:00:11 20° NNW 22:02:18 10° NNE visible
26 Apr ? 20:37:42 10° WSW 20:40:24 61° NW 20:43:06 10° NE visible
26 Apr ? 22:13:48 10° NW 22:15:12 13° NNW 22:16:36 10° NNE visible
27 Apr ? 20:52:50 10° W 20:55:14 27° NNW 20:57:37 10° NNE visible
28 Apr ? 21:08:23 10° WNW 21:10:11 16° NNW 21:12:00 10° NNE visible
29 Apr ? 21:24:18 10° NNW 21:25:15 11° NNW 21:26:12 10° N visible
30 Apr ? 23:14:19 10° NNW 23:14:41 11° N 23:14:41 11° N visible
01 May ? 23:28:35 10° NNW 23:28:45 11° NNW 23:28:45 11° NNW visible
